Time,TemperatureF,DewpointF,PressureIn,WindDirection,WindDirectionDegrees,WindSpeedMPH,WindSpeedGustMPH,Humidity,HourlyPrecipIn,Conditions,Clouds,dailyrainin,SolarRadiationWatts/m^2,SoftwareType,DateUTC
2013-07-27 00:02:00,59.9,55.0,30.00,North,5,0.0,-999.0,84,-99.99,,,0.00,0,weatherlink.com 1.10,2013-07-27 04:02:00,
2013-07-27 00:17:00,59.6,55.0,30.00,North,5,0.0,-999.0,85,-99.99,,,0.00,0,weatherlink.com 1.10,2013-07-27 04:17:00,
2013-07-27 00:32:00,59.2,55.0,30.00,North,5,0.0,-999.0,86,-99.99,,,0.00,0,weatherlink.com 1.10,2013-07-27 04:32:00,
2013-07-27 00:47:00,59.0,55.0,30.00,North,5,0.0,-999.0,87,-99.99,,,0.00,0,weatherlink.com 1.10,2013-07-27 04:47:00,
2013-07-27 01:02:00,58.7,55.0,29.99,North,5,0.0,-999.0,88,-99.99,,,0.00,0,weatherlink.com 1.10,2013-07-27 05:02:00,
2013-07-27 01:17:00,58.5,55.0,29.99,North,5,0.0,-999.0,88,-99.99,,,0.00,0,weatherlink.com 1.10,2013-07-27 05:17:00,
2013-07-27 01:32:00,58.4,55.0,29.98,North,5,1.0,-999.0,89,-99.99,,,0.00,0,weatherlink.com 1.10,2013-07-27 05:32:00,
2013-07-27 01:47:00,58.0,55.0,29.98,North,5,0.0,-999.0,89,-99.99,,,0.00,0,weatherlink.com 1.10,2013-07-27 05:47:00,
2013-07-27 02:02:00,58.0,55.0,29.98,North,5,0.0,-999.0,90,-99.99,,,0.00,0,weatherlink.com 1.10,2013-07-27 06:02:00,
2013-07-27 02:17:00,58.1,56.0,29.97,North,5,0.0,-999.0,91,-99.99,,,0.00,0,weatherlink.com 1.10,2013-07-27 06:17:00,
2013-07-27 02:32:00,58.2,56.0,29.97,NNE,21,2.0,-999.0,91,-99.99,,,0.00,0,weatherlink.com 1.10,2013-07-27 06:32:00,
2013-07-27 02:47:00,58.2,56.0,29.96,NNE,23,0.0,-999.0,91,-99.99,,,0.00,0,weatherlink.com 1.10,2013-07-27 06:47:00,
2013-07-27 03:02:00,57.9,55.0,29.96,NNE,27,1.0,-999.0,91,-99.99,,,0.00,0,weatherlink.com 1.10,2013-07-27 07:02:00,
2013-07-27 03:17:00,57.9,56.0,29.95,NNE,33,3.0,-999.0,92,-99.99,,,0.00,0,weatherlink.com 1.10,2013-07-27 07:17:00,
2013-07-27 03:32:00,57.9,56.0,29.95,NNE,33,2.0,-999.0,92,-99.99,,,0.00,0,weatherlink.com 1.10,2013-07-27 07:32:00,
2013-07-27 03:47:00,57.8,56.0,29.95,NNE,33,0.0,-999.0,92,-99.99,,,0.00,0,weatherlink.com 1.10,2013-07-27 07:47:00,
2013-07-27 04:02:00,58.0,56.0,29.95,NE,43,4.0,-999.0,93,-99.99,,,0.00,0,weatherlink.com 1.10,2013-07-27 08:02:00,
2013-07-27 04:17:00,58.2,56.0,29.94,NE,45,2.0,-999.0,93,-99.99,,,0.00,0,weatherlink.com 1.10,2013-07-27 08:17:00,
2013-07-27 04:32:00,58.1,56.0,29.94,NE,45,2.0,-999.0,93,-99.99,,,0.00,0,weatherlink.com 1.10,2013-07-27 08:32:00,
2013-07-27 04:47:00,58.0,56.0,29.94,NE,45,0.0,-999.0,93,-99.99,,,0.00,0,weatherlink.com 1.10,2013-07-27 08:47:00,
2013-07-27 05:03:00,57.9,56.0,29.94,NE,45,1.0,-999.0,93,-99.99,,,0.00,0,weatherlink.com 1.10,2013-07-27 09:03:00,
2013-07-27 05:18:00,57.7,56.0,29.94,NE,45,1.0,-999.0,93,-99.99,,,0.00,0,weatherlink.com 1.10,2013-07-27 09:18:00,
2013-07-27 05:33:00,57.7,56.0,29.94,NE,45,5.0,-999.0,93,-99.99,,,0.00,0,weatherlink.com 1.10,2013-07-27 09:33:00,
2013-07-27 05:48:00,57.7,56.0,29.94,NE,45,0.0,-999.0,93,-99.99,,,0.00,0,weatherlink.com 1.10,2013-07-27 09:48:00,
2013-07-27 06:03:00,57.8,56.0,29.95,NE,45,3.0,-999.0,94,-99.99,,,0.00,9,weatherlink.com 1.10,2013-07-27 10:03:00,
2013-07-27 06:18:00,58.3,57.0,29.94,NE,45,4.0,-999.0,94,-99.99,,,0.00,21,weatherlink.com 1.10,2013-07-27 10:18:00,
2013-07-27 06:33:00,58.9,57.0,29.94,NE,49,0.0,-999.0,94,-99.99,,,0.00,33,weatherlink.com 1.10,2013-07-27 10:33:00,
2013-07-27 06:48:00,59.9,58.0,29.94,ENE,77,2.0,-999.0,94,-99.99,,,0.00,70,weatherlink.com 1.10,2013-07-27 10:48:00,
2013-07-27 07:03:00,61.4,60.0,29.94,East,97,4.0,-999.0,94,-99.99,,,0.00,65,weatherlink.com 1.10,2013-07-27 11:03:00,
2013-07-27 07:18:00,63.2,60.0,29.94,ESE,113,7.0,-999.0,90,-99.99,,,0.00,56,weatherlink.com 1.10,2013-07-27 11:18:00,
2013-07-27 07:33:00,63.9,60.0,29.94,ESE,119,7.0,-999.0,87,-99.99,,,0.00,186,weatherlink.com 1.10,2013-07-27 11:33:00,
2013-07-27 07:48:00,65.3,60.0,29.95,ESE,109,4.0,-999.0,84,-99.99,,,0.00,287,weatherlink.com 1.10,2013-07-27 11:48:00,
2013-07-27 08:03:00,66.8,61.0,29.94,East,88,5.0,-999.0,82,-99.99,,,0.00,325,weatherlink.com 1.10,2013-07-27 12:03:00,
2013-07-27 08:18:00,67.7,61.0,29.94,ESE,105,7.0,-999.0,80,-99.99,,,0.00,186,weatherlink.com 1.10,2013-07-27 12:18:00,
2013-07-27 08:33:00,67.9,62.0,29.95,SE,128,9.0,-999.0,81,-99.99,,,0.00,236,weatherlink.com 1.10,2013-07-27 12:33:00,
2013-07-27 08:48:00,68.9,63.0,29.94,East,82,8.0,-999.0,80,-99.99,,,0.00,353,weatherlink.com 1.10,2013-07-27 12:48:00,
2013-07-27 09:03:00,69.7,62.0,29.94,ESE,121,7.0,-999.0,76,-99.99,,,0.00,176,weatherlink.com 1.10,2013-07-27 13:03:00,
2013-07-27 09:18:00,69.2,62.0,29.94,ESE,117,9.0,-999.0,77,-99.99,,,0.00,258,weatherlink.com 1.10,2013-07-27 13:18:00,
2013-07-27 09:33:00,69.8,62.0,29.93,ESE,112,8.0,-999.0,77,-99.99,,,0.00,221,weatherlink.com 1.10,2013-07-27 13:33:00,
2013-07-27 09:48:00,69.7,62.0,29.93,ESE,107,6.0,-999.0,76,-99.99,,,0.00,283,weatherlink.com 1.10,2013-07-27 13:48:00,
2013-07-27 10:03:00,69.6,62.0,29.93,East,96,9.0,-999.0,76,-99.99,,,0.00,302,weatherlink.com 1.10,2013-07-27 14:03:00,
2013-07-27 10:18:00,70.3,61.0,29.93,ESE,120,10.0,-999.0,73,-99.99,,,0.00,308,weatherlink.com 1.10,2013-07-27 14:18:00,
2013-07-27 10:33:00,71.2,62.0,29.93,ESE,107,12.0,-999.0,73,-99.99,,,0.00,849,weatherlink.com 1.10,2013-07-27 14:33:00,
2013-07-27 10:48:00,71.9,62.0,29.93,SE,131,10.0,-999.0,72,-99.99,,,0.00,497,weatherlink.com 1.10,2013-07-27 14:48:00,
2013-07-27 11:03:00,72.4,63.0,29.92,ESE,123,9.0,-999.0,72,-99.99,,,0.00,352,weatherlink.com 1.10,2013-07-27 15:03:00,
2013-07-27 11:18:00,72.8,63.0,29.92,East,86,9.0,-999.0,72,-99.99,,,0.00,659,weatherlink.com 1.10,2013-07-27 15:18:00,
2013-07-27 11:34:00,73.6,63.0,29.93,ESE,106,7.0,-999.0,70,-99.99,,,0.00,631,weatherlink.com 1.10,2013-07-27 15:34:00,
2013-07-27 11:49:00,74.3,63.0,29.92,ESE,111,9.0,-999.0,69,-99.99,,,0.00,522,weatherlink.com 1.10,2013-07-27 15:49:00,
2013-07-27 12:04:00,74.8,64.0,29.92,SE,128,11.0,-999.0,69,-99.99,,,0.00,492,weatherlink.com 1.10,2013-07-27 16:04:00,
2013-07-27 12:19:00,76.0,64.0,29.92,SE,130,11.0,-999.0,66,-99.99,,,0.00,517,weatherlink.com 1.10,2013-07-27 16:19:00,
2013-07-27 12:34:00,76.6,64.0,29.91,ESE,105,9.0,-999.0,66,-99.99,,,0.00,383,weatherlink.com 1.10,2013-07-27 16:34:00,
2013-07-27 12:49:00,76.4,65.0,29.91,SE,141,9.0,-999.0,67,-99.99,,,0.00,320,weatherlink.com 1.10,2013-07-27 16:49:00,
2013-07-27 13:04:00,77.0,66.0,29.90,SE,144,4.0,-999.0,69,-99.99,,,0.00,436,weatherlink.com 1.10,2013-07-27 17:04:00,
2013-07-27 13:19:00,77.5,66.0,29.90,SE,127,10.0,-999.0,68,-99.99,,,0.00,568,weatherlink.com 1.10,2013-07-27 17:19:00,
2013-07-27 13:34:00,78.2,68.0,29.89,SE,128,9.0,-999.0,70,-99.99,,,0.00,415,weatherlink.com 1.10,2013-07-27 17:34:00,
2013-07-27 13:49:00,77.8,66.0,29.89,SE,133,11.0,-999.0,68,-99.99,,,0.00,745,weatherlink.com 1.10,2013-07-27 17:49:00,
2013-07-27 14:04:00,78.9,67.0,29.88,ESE,112,7.0,-999.0,67,-99.99,,,0.00,849,weatherlink.com 1.10,2013-07-27 18:04:00,
2013-07-27 14:19:00,79.7,67.0,29.88,SE,146,8.0,-999.0,66,-99.99,,,0.00,548,weatherlink.com 1.10,2013-07-27 18:19:00,
2013-07-27 14:34:00,80.3,67.0,29.88,SE,126,10.0,-999.0,65,-99.99,,,0.00,413,weatherlink.com 1.10,2013-07-27 18:34:00,
2013-07-27 14:49:00,80.2,67.0,29.88,SE,136,8.0,-999.0,64,-99.99,,,0.00,487,weatherlink.com 1.10,2013-07-27 18:49:00,
2013-07-27 15:04:00,80.4,67.0,29.87,East,98,10.0,-999.0,64,-99.99,,,0.00,487,weatherlink.com 1.10,2013-07-27 19:04:00,
2013-07-27 15:19:00,80.7,68.0,29.86,ESE,119,7.0,-999.0,65,-99.99,,,0.00,833,weatherlink.com 1.10,2013-07-27 19:19:00,
2013-07-27 15:34:00,80.9,67.0,29.86,ESE,123,12.0,-999.0,63,-99.99,,,0.00,357,weatherlink.com 1.10,2013-07-27 19:34:00,
2013-07-27 15:49:00,79.8,68.0,29.86,ESE,116,7.0,-999.0,67,-99.99,,,0.00,461,weatherlink.com 1.10,2013-07-27 19:49:00,
2013-07-27 16:04:00,80.2,69.0,29.85,ESE,107,7.0,-999.0,68,-99.99,,,0.00,257,weatherlink.com 1.10,2013-07-27 20:04:00,
2013-07-27 16:19:00,80.3,70.0,29.85,SE,135,8.0,-999.0,70,-99.99,,,0.00,339,weatherlink.com 1.10,2013-07-27 20:19:00,
2013-07-27 16:34:00,80.1,70.0,29.85,SE,135,6.0,-999.0,71,-99.99,,,0.00,134,weatherlink.com 1.10,2013-07-27 20:34:00,
2013-07-27 16:49:00,76.4,68.0,29.87,SSW,198,6.0,-999.0,74,-99.99,,,0.00,19,weatherlink.com 1.10,2013-07-27 20:49:00,
2013-07-27 17:04:00,70.2,65.0,29.86,WSW,250,5.0,-999.0,82,-99.99,,,0.00,135,weatherlink.com 1.10,2013-07-27 21:04:00,
2013-07-27 17:19:00,70.3,66.0,29.84,SE,134,1.0,-999.0,87,-99.99,,,0.00,213,weatherlink.com 1.10,2013-07-27 21:19:00,
2013-07-27 17:34:00,70.5,67.0,29.83,SE,134,0.0,-999.0,88,-99.99,,,0.00,181,weatherlink.com 1.10,2013-07-27 21:34:00,
2013-07-27 17:49:00,70.7,67.0,29.84,SE,134,0.0,-999.0,88,-99.99,,,0.00,179,weatherlink.com 1.10,2013-07-27 21:49:00,
2013-07-27 18:04:00,71.2,68.0,29.84,SE,134,1.0,-999.0,89,-99.99,,,0.00,116,weatherlink.com 1.10,2013-07-27 22:04:00,
2013-07-27 18:19:00,70.8,68.0,29.83,SE,134,0.0,-999.0,89,-99.99,,,0.00,79,weatherlink.com 1.10,2013-07-27 22:19:00,
2013-07-27 18:34:00,71.0,68.0,29.84,SE,131,4.0,-999.0,90,-99.99,,,0.00,53,weatherlink.com 1.10,2013-07-27 22:34:00,
2013-07-27 18:49:00,71.0,68.0,29.85,SE,130,4.0,-999.0,90,-99.99,,,0.00,37,weatherlink.com 1.10,2013-07-27 22:49:00,
2013-07-27 19:04:00,71.0,68.0,29.86,SE,130,4.0,-999.0,90,-99.99,,,0.00,19,weatherlink.com 1.10,2013-07-27 23:04:00,
2013-07-27 19:19:00,70.7,68.0,29.85,ESE,121,0.0,-999.0,90,-99.99,,,0.00,14,weatherlink.com 1.10,2013-07-27 23:19:00,
2013-07-27 19:34:00,70.4,68.0,29.84,ESE,120,3.0,-999.0,91,-99.99,,,0.00,14,weatherlink.com 1.10,2013-07-27 23:34:00,
2013-07-27 19:49:00,70.0,68.0,29.84,ESE,108,3.0,-999.0,92,-99.99,,,0.00,9,weatherlink.com 1.10,2013-07-27 23:49:00,
2013-07-27 20:04:00,70.0,68.0,29.84,ESE,106,0.0,-999.0,92,-99.99,,,0.00,5,weatherlink.com 1.10,2013-07-28 00:04:00,
2013-07-27 20:19:00,69.9,68.0,29.85,ESE,106,0.0,-999.0,93,-99.99,,,0.00,0,weatherlink.com 1.10,2013-07-28 00:19:00,
2013-07-27 20:34:00,69.9,68.0,29.85,ESE,106,0.0,-999.0,93,-99.99,,,0.00,0,weatherlink.com 1.10,2013-07-28 00:34:00,
2013-07-27 20:49:00,69.9,68.0,29.85,ESE,106,0.0,-999.0,93,-99.99,,,0.00,0,weatherlink.com 1.10,2013-07-28 00:49:00,
2013-07-27 21:04:00,70.0,68.0,29.85,ESE,106,0.0,-999.0,93,-99.99,,,0.00,0,weatherlink.com 1.10,2013-07-28 01:04:00,
2013-07-27 21:19:00,69.9,68.0,29.86,ESE,106,0.0,-999.0,93,-99.99,,,0.00,0,weatherlink.com 1.10,2013-07-28 01:19:00,
2013-07-27 21:34:00,69.8,68.0,29.86,ESE,106,0.0,-999.0,94,-99.99,,,0.00,0,weatherlink.com 1.10,2013-07-28 01:34:00,
2013-07-27 21:49:00,69.6,68.0,29.85,ESE,105,4.0,-999.0,94,-99.99,,,0.00,0,weatherlink.com 1.10,2013-07-28 01:49:00,
2013-07-27 22:04:00,69.6,68.0,29.86,East,100,4.0,-999.0,94,-99.99,,,0.00,0,weatherlink.com 1.10,2013-07-28 02:04:00,
2013-07-27 22:19:00,69.4,68.0,29.86,ESE,103,4.0,-999.0,94,-99.99,,,0.00,0,weatherlink.com 1.10,2013-07-28 02:19:00,
2013-07-27 22:35:00,69.2,68.0,29.85,East,93,4.0,-999.0,94,-99.99,,,0.00,0,weatherlink.com 1.10,2013-07-28 02:35:00,
2013-07-27 22:49:00,69.2,68.0,29.84,East,93,7.0,-999.0,94,-99.99,,,0.00,0,weatherlink.com 1.10,2013-07-28 02:49:00,
2013-07-27 23:04:00,69.2,68.0,29.84,SE,127,6.0,-999.0,94,-99.99,,,0.00,0,weatherlink.com 1.10,2013-07-28 03:04:00,
2013-07-27 23:19:00,69.1,67.0,29.83,ESE,105,6.0,-999.0,94,-99.99,,,0.00,0,weatherlink.com 1.10,2013-07-28 03:19:00,
2013-07-27 23:34:00,68.9,67.0,29.83,ESE,113,7.0,-999.0,94,-99.99,,,0.00,0,weatherlink.com 1.10,2013-07-28 03:34:00,
2013-07-27 23:49:00,68.7,67.0,29.83,East,100,9.0,-999.0,94,-99.99,,,0.00,0,weatherlink.com 1.10,2013-07-28 03:49:00,